Regional Weather Roundup
Issued by NWS Charleston, SC

Current Version | Previous Version | Graphics & Text | Print | Product List | Glossary On
Versions: 1 2 3 4 5 6 7 8 9 10 11 12 13 14 15 16 17 18 19 20 21 22 23 24 25 26 27 28 29 30 31 32 33 34 35 36 37 38 39 40 41 42 43 44 45 46 47 48 49 50
000 ASUS42 KCHS 271812 RWRCHS REGIONAL WEATHER ROUNDUP NATIONAL WEATHER SERVICE CHARLESTON SC 200 PM EDT WED MAY 27 2015 NOTE: "FAIR" INDICATES FEW OR NO CLOUDS BELOW 12,000 FEET WITH NO SIGNIFICANT WEATHER AND/OR OBSTRUCTIONS TO VISIBILITY. NOT ALL STATIONS ARE QUALITY CONTROLLED BY THE NATIONAL WEATHER SERVICE. USE DATA WITH CAUTION...ESPECIALLY DEWPOINT OBSERVATIONS. SCZ027-030-031-034>040-042>050-271900- ...SOUTHEAST SOUTH CAROLINA... CITY SKY/WX TMP DP RH WIND PRES REMARKS N CHARLESTON MOSUNNY 85 65 51 VRB7G16 30.24F 6HR MIN TEMP: 76; 6HR MAX TEMP: 86; WATERFRONT PAR N/A 80 66 62 S7 30.22F MOUNT PLEASANT LGT RAIN 84 66 54 S9 30.25F JOHNS ISLAND PTCLDY 82 66 57 S8 30.26S PINOPOLIS N/A 88 68 51 CALM 30.15F HX 91 MONCKS CORNER FAIR 88 66 48 SE8 30.23F HX 90 SUMMERVILLE MOCLDY 86 68 54 SE5 30.24F BEAUFORT MCAS PTSUNNY 88 69 53 SE6 30.24F HX 92 6HR MIN TEMP: 78; 6HR MAX TEMP: 89; BEAUFORT ARPT MOCLDY 82 68 61 S7 30.24F HILTON HEAD IS MOSUNNY 79 64 61 SE8 30.26F WALTERBORO PTCLDY 86 64 48 S12 30.23F ALLENDALE FAIR 82 70 65 CALM 30.22F ...SOUTHERN MIDLANDS AND PEE DEE... CITY SKY/WX TMP DP RH WIND PRES REMARKS GEORGETOWN NOT AVBL KINGSTREE NOT AVBL ORANGEBURG PTSUNNY 82 67 60 SW9 30.23F 6HR MIN TEMP: 71; 6HR MAX TEMP: 83; 6HR PCP: TRACE; BARNWELL MOCLDY 88 70 55 SW8 30.23F HX 92 AIKEN FAIR 82 63 51 SW9 30.27F MANNING FAIR 82 55 39 SW6 30.23F COLUMBIA PTSUNNY 85 66 53 SW8 30.21F 6HR MIN TEMP: 71; 6HR MAX TEMP: 86; 6HR PCP: TRACE; SUMTER PTSUNNY 80 69 68 SE5 30.23F 6HR MIN TEMP: 72; 6HR MAX TEMP: 83; 6HR PCP: 0.31; FLORENCE PTSUNNY 81 69 67 W5 30.23F 6HR MIN TEMP: 74; 6HR MAX TEMP: 83; 6HR PCP: 0.18; MYRTLE BEACH MOSUNNY 82 66 57 S14 30.28S N MYRTLE BEACH SUNNY 81 69 67 S12 30.26F 6HR MIN TEMP: 77; 6HR MAX TEMP: 82; $$ GAZ063-065-086>088-099>101-113>116-118-119-134>141-150-271900- ...SOUTHEAST GEORGIA... CITY SKY/WX TMP DP RH WIND PRES REMARKS SAVANNAH ARPT PTSUNNY 85 65 51 SE10 30.23F 6HR MIN TEMP: 75; 6HR MAX TEMP: 85; HUNTER AAF MOSUNNY 84 68 57 SE12 30.22F 6HR MIN TEMP: 76; 6HR MAX TEMP: 84; FORT STEWART PTSUNNY 86 64 47 SE8 30.20F 6HR MIN TEMP: 73; 6HR MAX TEMP: 86; STATESBORO MOSUNNY 87 73 62 SE6 30.22F HX 93 SYLVANIA CLOUDY 85 71 62 S3 30.23F HX 90 CLAXTON CLOUDY 81 72 74 NW5 30.22F ...CSRA...CENTRAL AND FAR SOUTHEAST GEORGIA... CITY SKY/WX TMP DP RH WIND PRES REMARKS THOMSON MOSUNNY 86 70 58 E5 30.27F HX 90 AUGUSTA-BUSH MOSUNNY 84 68 58 VRB3 30.22F 6HR MIN TEMP: 70; 6HR MAX TEMP: 84; AUGUSTA-DANIEL SUNNY 83 66 56 VRB3 30.24F SWAINSBORO MOCLDY 86 70 58 SE3 30.24F HX 90 VIDALIA MOSUNNY 86 68 54 S3 30.22F EASTMAN MOCLDY 85 71 62 SE6 30.25F HX 90 HAZLEHURST MOCLDY 85 69 57 CALM 30.21F ALMA CLOUDY 83 68 60 SE7 30.22F 6HR MIN TEMP: 71; 6HR MAX TEMP: 85; WAYCROSS MOSUNNY 85 69 58 E8G17 30.21F JESUP MOCLDY 91 68 46 E10 30.22F HX 95 BAXLEY FAIR 86 70 58 SE7 30.22S HX 90 BRUNSWICK MOSUNNY 84 61 45 SE9G17 30.24F SAINT SIMONS NOT AVBL $$ SCZ027-028-034-036>038-045-046-048>050-GAZ119-141-271900- ...LAKE AND SUPPLEMENTAL COASTAL OBSERVATIONS... STATION/POSITION TIME TEMP WIND PRES WAVE SWELL AIR SEA DIR/SP/G HT/PER HT/PER/DIR (UTC) (F) (DEG/KT/KT) (MB) (FT/S) (FT/S/D) UPR LAKE MARION NOT AVBL WINYAH BAY 1645 80 150/ 9 1024.0 LAKE MURRAY 1700 80 180/ 3/ 6 1023.4F ACE BASIN NERRS 1645 82 N/A FORT PULASKI 1700 80 78 120/ 7/ 10 1025.0F SAPELO ISLAND 1700 84 100/ 7 1024.0S $$ ANZ835-935-AMZ111-154-330-350-352-354-370-450-454-472-271900- ...C-MAN AND BUOY OBSERVATIONS... STATION/POSITION TIME TEMP WIND PRES WAVE SWELL AIR SEA DIR/SP/G HT/PER HT/PER/DIR (UTC) (F) (DEG/KT/KT) (MB) (FT/S) (FT/S/D) BUOY 41004 1750 77 78 100/ 8/ 10 1024.2F 3/ 7 3/ 7 BUOY 41008 1750 78 79 130/ 4/ 6 1024.5F 3/ 7 3/120/ 7 FOLLY BEACH CMAN 1800 79 150/ 6/ 7 1024.7F CAPERS NEARSHORE 1708 78 180/ 6/ 8 1024.9F FRIPP NEARSHORE NOT AVBL STATION/POSITION TIME TEMP WIND PRES WAVE SWELL AIR SEA DIR/SP/G HT/PER HT/PER/DIR (UTC) (F) (DEG/KT/KT) (MB) (FT/S) (FT/S/D) 5E ST. MARYS GA 1721 80 N/A 3/ 7 FRYING PAN BUOY 1750 77 75 150/ 8/ 10 1025.5F 3/ 7 3/130/ 7 BUOY 41025 1750 74 77 160/ 12/ 14 1026.2F 3/ 7 2/150/ 7 CAPE LOOKOUT NC 1800 74 150/ 13/ 14 1025.4F BUOY 41002 1750 74 75 80/ 10/ 12 1026.3F 4/ 7 3/130/ 7 BUOY 41010 1720 78 81 80/ 14/ 17 1023.3F ST AUGUSTINE FL 1800 78 81 90/ 9/ 10 1024.0F $$

USA.gov is the U.S. government's official web portal to all federal, state and local government web resources and services.